Weather in Sand City

United States     36°37′50″N   121°50′24″W
temp.,
°C
wind,
m/s
gust,
m/s
humid.,
%
clouds,
%
prec.,
mm/h
press.,
hPa
HPBL,
m
23 may, mon
mon2323:00+8s249711 0.0 1018106
02:00+8s249713 0.0 101783
05:00+8sse23967 0.0 101658
08:00+13ssw127444 0.0 1016223
11:00+19w32494 0.0 1015421
14:00+17wsw555432 0.0 1014365
17:00+15sw566181 0.0 1013340
20:00+11ssw37836 0.0 1013247
24 may, tue
tue2423:00+8s23968 0.0 101367
02:00+8sse229715 0.0 101240
05:00+8e11935 0.0 101115
08:00+15nne11595 0.0 1011131
11:00+24wnw323622 0.0 1010369
14:00+20w444913 0.0 1010244
17:00+17wsw45608 0.0 1009238
20:00+13sw23774 0.0 100972
25 may, wed
wed2523:00+12ese01770 0.0 100910
02:00+12wnw00725 0.0 100810
05:00+11w117538 0.0 100810
08:00+16wsw12605 0.0 1010165
11:00+20wnw324698 0.0 1010305
14:00+20wnw445019 0.0 1010282
17:00+16wnw457061 0.0 1010335
20:00+12nnw11866 0.0 101115
26 may, thu
thu2623:00+10nnw11935 0.0 101212
02:00+10n11940 0.0 101111
05:00+10n11945 0.0 101212
08:00+15nw2373100 0.0 1013269
11:00+18wnw4361100 0.0 1014483
14:00+17w4769100 0.0 1014411
17:00+15w3573100 0.0 1014345
20:00+11wsw2289100 0.0 101563
27 may, fri
fri2723:00+10s1194100 0.0 101610
02:00+9e1194100 0.0 101510
05:00+9nne1190100 0.0 101610
08:00+15wnw116596 0.0 1016155
11:00+20w3247100 0.0 1016397
14:00+20sw564987 0.0 1016337
17:00+18sw5848100 0.0 1015260
20:00+13ssw3570100 0.0 1016152